{"data":{"norad_id":56812,"epoch":"2026-09-20T22:00:03.000096Z","epoch_age_seconds":81651,"freshness":"FRESH","line1":"1 56812U 23078AX  26263.91670139  .00004475  00000+0  30352-3 0  9992","line2":"2 56812  69.9997 191.9857 0004558 292.6140  33.5379 15.07146559  5715","mean_motion":15.07146559,"eccentricity":0.0004558,"inclination_deg":69.9997,"raan_deg":191.9857,"arg_perigee_deg":292.614,"mean_anomaly_deg":33.5379,"bstar":0.00030352,"rev_number":571,"period_min":95.544789018757,"perigee_km":541.76887528955,"apogee_km":548.07993806787,"semimajor_km":6923.0614066787,"source":"CELESTRAK","updated_at":"2026-09-21T09:00:33.513089Z"}}